GAOFEN-13 01

Last updated on Wed Jul 16 2025 00:02:49 GMT+0000 (Coordinated Universal Time)

1 46610U 20071A 25196.64321808 -.00000355 00000+0 00000+0 0 9994 2 46610 0.5309 85.6077 0019909 122.1581 75.5632 1.00270156 17544
UTC large
Height (km)
Speed (km/s)
/
Latitude / Longitude
Inclination (degrees)
Orbital Period (minutes)
Azimuth
Elevation
Range (km)
Doppler Factor

Next 0 passes for location: London (51.5072 / 0.1276)

Sorry there are no passes over London.